Location: Buch
(50.1863°N, 11.0141°E)
Time: 17:16:27
(UTC+00:00)

Cosmos 2228 - Pass Details

Date: 18 January 2020
Orbit: 588 x 619 km, 82.5° (Epoch: 18 February)

Event Time Altitude Azimuth Distance (km) Brightness Sun altitude
Rises 05:23:52 0° 186° (S) 2,882 6.6 -16.1°
Reaches altitude 10° 05:26:04 10° 186° (S) 1,982 5.7 -15.7°
Maximum altitude 05:30:28 84° 100° (E) 631 3.1 -15.0°
Drops below altitude 10° 05:34:55 10° 11° (NNE) 1,996 5.6 -14.4°
Sets 05:37:09 0° 11° (N) 2,904 6.5 -14.0°
